Tracking 31030 objects as of 16-Jul-2025
HD Live streaming from Space Station
objects crossing your sky now

FENGYUN 1C DEB

Track FENGYUN 1C DEB now!
10-day predictions


NORAD ID: 30680
Int'l Code: 1999-025AQN
Perigee: 811.9 km
Apogee: 1,312.4 km
Inclination: 99.6 °
Period: 106.3 minutes
Semi major axis: 7433 km
RCS: 0.0144 m2 (small)
Launch date: May 10, 1999
Source: People's Republic of China (PRC)
Launch site: Taiyaun Space Center, China (TSC)

Note: This is SATELLITE DEBRIS
Your satellite tracking list
Your tracking list is empty




NASA's NSSDC Master Catalog

Two Line Element Set (TLE):
1 30680U 99025AQN 25196.78474500  .00004074  00000-0  41804-2 0  9994
2 30680  99.6180 242.8711 0336623 182.3468 177.6104 13.54698104902224
Source of the keplerian elements: AFSPC